Zurück zum Katalog

STARLINK-34638

AktivKommunikationVLEO
NORAD 64762·PAYLOAD·🇺🇸 United States

Gestartet Jul 8, 2025 von Cape Canaveral Space Force Station

Loading…

Nächste Überflüge (nächste 24 Stunden)

TLE

AktuellSource: CelesTrak SupGP

Epoche: Sep 14, 2026, 21:14 UTC

1 64762C 25147H   26257.88520833 -.00011520  00000+0 -34045-3 0  2579
2 64762  53.1577  79.8004 0001213  86.4898  37.4267 15.34389232    13

Verfolge STARLINK-34638 in Echtzeit mit AllMySat

Download on the App Store